Terminal Aerodrome Forecast
Issued by NWS Omaha/Valley, NE

Home | Current Version | Previous Version | Graphics & Text | Print | Product List | Glossary On
Versions: 1 2 3 4 5 6 7 8 9 10 11 12 13 14 15 16 17 18 19 20 21 22 23 24 25 26 27 28 29 30 31 32 33 34 35 36 37 38 39 40 41
000
FTUS43 KOAX 271314 AAB
TAFOFK
TAF AMD
KOFK 271314Z 2713/2812 11006KT 6SM BR SCT005 BKN020
      TEMPO 2713/2715 4SM BR BKN005
     FM271600 14011KT P6SM FEW025 SCT150 BKN250
     FM271700 15014G22KT P6SM SCT150=

USA.gov is the U.S. government's official web portal to all federal, state and local government web resources and services.